Location: Unspecified
(0.0000°N, 0.0000°E)
Time: 12:57:28
(UTC+00:00)

Vanguard 3 - Pass Details

Date: 12 December 2017
Orbit: 508 x 3264 km, 33.3° (Epoch: 21 July)

Event Time Altitude Azimuth Distance (km) Brightness Sun altitude
Rises 18:20:10 0° 336° (NNW) 3,429 10.4 -6.0°
Reaches altitude 10° 18:22:51 10° 351° (N) 2,792 9.8 -6.6°
Maximum altitude 18:28:18 24° 43° (NE) 2,542 9.2 -7.9°
Drops below altitude 10° 18:36:26 10° 91° (E) 4,349 10.3 -9.8°
Sets 18:41:57 0° 103° (ESE) 5,901 11.1 -11.0°
